Location: Prairie State College
(41.5244°N, 87.6382°W)
Time: 18:18:36
(UTC-06:00)

ISS - All Passes

Search period start: 02 December 2016 00:00
Search period end: 12 December 2016 00:00
Orbit: 401 x 410 km, 51.6° (Epoch: 03 December)

Date Brightness Start Highest point End Pass type
(mag) Time Alt. Az. Time Alt. Az. Time Alt. Az.
02 Dec - 00:54:26 10° WNW 00:57:20 29° SW 01:00:14 10° SSE night (unlit)
02 Dec - 17:33:58 10° SW 17:37:15 79° SE 17:40:34 10° ENE visible
02 Dec - 19:11:27 10° WNW 19:14:05 22° NNW 19:16:44 10° NE visible
02 Dec - 20:49:35 10° NNW 20:51:30 14° N 20:53:24 10° NE night (unlit)
02 Dec - 22:26:02 10° NW 22:28:52 25° NNE 22:31:41 10° E night (unlit)
03 Dec - 00:02:18 10° WNW 00:05:33 55° SW 00:08:47 10° SE night (unlit)
03 Dec - 16:42:20 10° SSW 16:45:26 40° SE 16:48:33 10° ENE daylight
03 Dec - 18:19:03 10° W 18:22:00 29° NNW 18:24:58 10° NE visible
03 Dec - 19:57:21 10° NW 19:59:18 15° N 20:01:15 10° NNE night (unlit)
03 Dec - 21:34:16 10° NNW 21:36:45 19° NNE 21:39:15 10° ENE night (unlit)
03 Dec - 23:10:22 10° NW 23:13:42 78° NE 23:16:59 10° ESE night (unlit)
04 Dec - 00:48:22 10° WSW 00:49:45 12° SW 00:51:08 10° SSW night (unlit)
04 Dec - 15:51:05 10° S 15:53:40 21° SE 15:56:15 10° E daylight
04 Dec - 17:26:47 10° WSW 17:29:58 46° NNW 17:33:11 10° NE visible
04 Dec - 19:04:55 10° NW 19:07:06 16° N 19:09:17 10° NNE visible
04 Dec - 20:42:25 10° NNW 20:44:35 16° N 20:46:45 10° NE night (unlit)
04 Dec - 22:18:31 10° NW 22:21:44 44° NNE 22:24:55 10° ESE night (unlit)
04 Dec - 23:55:24 10° W 23:58:03 22° SW 00:00:43 10° S night (unlit)
05 Dec - 15:00:49 10° SSE 15:01:58 11° SE 15:03:07 10° ESE daylight
05 Dec - 16:34:43 10° WSW 16:38:01 81° NNW 16:41:19 10° NE daylight
05 Dec - 18:12:25 10° WNW 18:14:55 20° NNW 18:17:26 10° NNE visible
05 Dec - 19:50:26 10° NNW 19:52:22 14° N 19:54:19 10° NE night (unlit)
05 Dec - 21:26:44 10° NW 21:29:41 29° NNE 21:32:37 10° E night (unlit)
05 Dec - 23:03:06 10° WNW 23:06:16 42° SW 23:09:24 10° SSE night (unlit)
06 Dec - 15:42:55 10° SW 15:46:07 52° SE 15:49:20 10° ENE daylight
06 Dec - 17:19:57 10° W 17:22:46 26° NNW 17:25:38 10° NE visible
06 Dec - 18:58:14 10° NW 19:00:08 14° N 19:02:02 10° NNE visible
06 Dec - 20:34:56 10° NW 20:37:34 21° NNE 20:40:11 10° ENE night (unlit)
06 Dec - 22:11:04 10° NW 22:14:23 83° SW 22:17:41 10° SE night (unlit)
07 Dec - 14:51:27 10° SSW 14:54:17 27° SE 14:57:08 10° ENE daylight
07 Dec - 16:27:35 10° W 16:30:41 38° NNW 16:33:49 10° NE daylight
07 Dec - 18:05:49 10° NW 18:07:53 15° N 18:09:57 10° NNE visible
07 Dec - 19:43:05 10° NNW 19:45:22 17° NNE 19:47:39 10° NE visible
07 Dec - 21:19:09 10° NW 21:22:26 54° NNE 21:25:40 10° ESE night (unlit)
07 Dec - 22:56:20 10° W 22:58:39 18° SW 23:00:57 10° S night (unlit)
08 Dec - 14:00:36 10° SSE 14:02:31 15° SE 14:04:26 10° E daylight
08 Dec - 15:35:24 10° WSW 15:38:40 64° NNW 15:41:57 10° NE daylight
08 Dec - 17:13:18 10° WNW 17:15:39 18° NNW 17:18:01 10° NNE visible
08 Dec - 18:51:07 10° NNW 18:53:07 15° N 18:55:07 10° NE visible
08 Dec - 20:27:18 10° NW 20:30:22 33° NNE 20:33:25 10° E night (unlit)
08 Dec - 22:03:50 10° WNW 22:06:51 33° SW 22:09:51 10° SSE night (unlit)
09 Dec - 14:43:26 10° SW 14:46:42 68° SE 14:49:58 10° ENE daylight
09 Dec - 16:20:45 10° WNW 16:23:27 23° NNW 16:26:10 10° NE daylight
09 Dec - 17:58:58 10° NW 18:00:51 14° N 18:02:44 10° NE visible
09 Dec - 19:35:28 10° NW 19:38:14 24° NNE 19:40:58 10° ENE visible
09 Dec - 21:11:41 10° WNW 21:14:58 64° SW 21:18:14 10° SE night (unlit)
10 Dec - 13:51:47 10° SSW 13:54:47 34° SE 13:57:50 10° ENE daylight
10 Dec - 15:28:18 10° W 15:31:18 32° NNW 15:34:19 10° NE daylight
10 Dec - 17:06:35 10° NW 17:08:34 15° N 17:10:32 10° NNE visible
10 Dec - 18:43:37 10° NNW 18:46:01 18° NNE 18:48:26 10° ENE visible
10 Dec - 20:19:41 10° NW 20:23:00 68° NE 20:26:16 10° ESE night (unlit)
10 Dec - 21:57:18 10° W 21:59:07 14° SW 22:00:55 10° SSW night (unlit)
11 Dec - 13:00:36 10° S 13:02:58 19° SE 13:05:20 10° E daylight
11 Dec - 14:36:00 10° WSW 14:39:12 51° NNW 14:42:27 10° NE daylight
11 Dec - 16:14:03 10° NW 16:16:17 17° NNW 16:18:31 10° NNE daylight
11 Dec - 17:51:40 10° NNW 17:53:45 16° N 17:55:51 10° NE visible
11 Dec - 19:27:46 10° NW 19:30:56 40° NNE 19:34:04 10° E visible
11 Dec - 21:04:30 10° WNW 21:07:19 26° SW 21:10:06 10° SSE night (unlit)
